CAPE
0 1 0 0 2 0 0 0 1 12 2 1 26 302 616 517 345 237 321 443 215 294 389 552 332 330 365 179 282 482 497 414 319 24 22 24 0 0 0 0 0 0 0 0
0 0 0 0 0 0 0 0 0 0 0 0 0 271 345 376 319 213 174 185 172 195 256 446 425 414 397 309 365 648 644 500 217 10 7 8 0 0 0 0 0 0 0 0
0 0 0 3 0 0 0 0 0 0 0 0 6 158 306 222 247 275 221 238 163 130 173 370 458 456 388 420 562 707 542 248 123 99 48 20 0 0 0 0 0 0 0 0
0 0 0 0 0 0 0 0 0 19 6 0 0 0 1 169 93 50 195 279 182 208 109 148 335 402 438 536 722 671 407 220 113 100 184 95 0 0 0 0 0 0 0 0
0 3 0 0 0 0 0 0 0 12 3 0 3 2 0 3 0 0 66 181 285 290 253 226 224 374 449 616 738 648 529 418 145 243 358 71 1 0 0 0 0 0 0 0
0 1 0 0 0 0 5 0 0 0 0 1 4 0 0 11 1 0 0 27 272 360 337 243 290 379 461 658 718 607 684 588 391 393 283 29 13 2 3 0 0 0 0 0
0 0 0 0 0 0 17 23 1 0 1 0 0 0 0 0 0 0 0 0 104 430 427 363 363 478 631 679 638 722 793 662 479 319 219 18 19 20 0 0 0 0 0 0
0 0 0 0 0 0 12 0 0 0 0 1 3 0 7 6 0 0 5 3 216 252 477 526 641 720 766 683 640 834 768 718 532 398 277 131 66 30 0 0 0 0 0 0
0 0 0 1 1 0 5 2 1 3 5 0 1 11 0 13 1 6 14 2 89 572 660 784 831 898 927 949 885 740 688 658 458 529 266 168 86 26 0 0 0 0 0 0
6 21 11 1 1 4 0 0 13 32 0 0 0 0 0 83 41 52 30 45 23 535 682 755 871 945 958 919 826 803 709 594 414 334 210 124 97 37 0 0 0 0 0 0
14 15 15 10 0 3 5 1 1 1 16 1 0 0 0 7 14 7 25 47 76 398 815 911 1025 1070 1025 851 698 666 683 558 399 386 191 91 37 1 0 0 0 0 0 1
0 18 7 0 1 0 14 16 14 2 0 0 0 1 0 0 0 8 3 32 188 335 707 846 924 942 891 853 765 719 782 628 353 210 41 50 54 59 35 5 1 3 6 2
1 8 22 4 4 12 22 3 2 0 12 0 0 0 0 0 0 0 0 92 271 395 753 788 722 675 766 816 797 790 628 263 6 37 37 52 72 52 29 18 11 10 4 1
5 0 0 0 3 24 13 28 25 13 0 0 0 0 0 0 0 0 0 0 139 385 650 677 621 505 575 661 643 353 82 28 26 47 50 64 80 48 22 13 7 1 0 0
4 8 0 0 0 0 0 0 31 12 0 0 0 0 0 0 0 0 0 0 0 53 252 495 422 228 160 124 93 46 27 25 31 28 44 62 46 18 18 12 5 0 0 0
2 0 3 0 0 0 0 0 0 0 6 3 0 0 0 0 0 0 0 0 0 0 0 0 0 0 0 15 51 32 30 30 52 54 68 37 38 18 15 6 0 0 0 0
13 0 0 0 0 0 0 0 0 0 20 4 1 0 0 0 0 0 0 0 0 0 0 0 0 0 0 1 18 55 45 48 64 60 32 17 21 11 12 6 2 0 0 0
0 0 0 0 0 0 0 0 0 0 0 0 0 0 0 0 0 0 0 0 0 0 0 0 0 0 0 0 22 48 63 58 45 27 45 21 25 15 9 6 1 0 0 0
120 27 7 0 0 0 0 0 0 0 0 0 0 0 0 0 0 0 0 0 0 0 0 0 0 0 0 0 0 2 30 42 35 39 34 33 27 32 15 3 0 0 0 0
77 53 15 0 0 0 0 0 0 0 0 0 0 0 0 0 0 0 0 0 0 0 0 0 0 0 0 0 0 30 38 43 39 34 22 29 1 0 0 0 0 0 0 0
0 17 1 2 0 0 0 0 0 0 0 0 0 0 0 0 0 0 0 0 0 0 0 0 0 0 0 0 0 4 27 35 42 46 20 42 18 37 0 0 0 0 0 0
0 0 0 0 0 0 0 0 0 0 0 0 0 0 0 0 0 0 0 0 0 0 0 0 0 0 0 0 0 1 18 19 22 35 43 29 11 0 0 0 0 0 0 0
0 0 0 0 0 0 0 0 0 0 0 0 0 0 0 0 0 0 0 0 0 0 0 0 0 1 0 0 0 0 2 0 0 5 6 1 0 0 0 0 0 0 0 0
0 0 0 0 0 0 0 0 0 0 0 0 0 0 0 0 0 0 0 0 0 0 0 0 0 0 0 0 9 0 0 5 1 0 0 0 0 0 0 0 0 0 0 0
0 0 0 0 0 0 0 0 0 0 0 0 0 0 0 0 0 0 0 0 0 0 0 0 0 0 0 2 0 0 0 0 0 0 0 0 0 0 0 0 0 0 0 0
3 0 0 0 0 0 0 0 0 0 0 0 0 0 0 0 0 0 0 0 0 0 0 0 0 0 0 0 0 0 0 0 0 0 0 0 0 0 0 0 0 0 0 0
CIN
0 -34 0 0 -49 0 0 0 -1 -15 -13 -1 -33 -49 -34 -40 -39 -33 -57 -63 -39 -33 -64 -93 -91 -86 -73 -167 -167 -76 -62 -72 -79 -238 -42 -41 0 0 0 0 0 0 0 0
0 0 0 0 0 0 0 0 0 0 0 -3 0 -48 -43 -29 -31 -34 -34 -67 -93 -114 -111 -106 -118 -121 -91 -67 -99 -45 -42 -55 -88 -186 -115 -24 0 0 0 0 0 0 0 0
0 0 0 -25 -1 -1 0 0 0 0 0 0 -53 -29 -23 -28 -29 -21 -37 -51 -68 -64 -140 -151 -146 -145 -121 -80 -115 -49 -39 -76 -92 -97 -130 -86 0 0 0 0 0 0 0 0
0 0 0 0 0 0 0 0 0 -13 -11 0 0 0 -8 -38 -36 -65 -31 -49 -22 -141 -81 -69 -158 -143 -135 -169 -115 -54 -52 -91 -116 -92 -73 -83 0 0 0 0 0 0 0 0
-4 -10 0 0 0 0 0 0 0 -32 -28 -4 -35 -33 -3 -29 -16 0 -123 -45 -26 -44 -44 -51 -204 -157 -123 -177 -126 -91 -72 -72 -85 -57 -23 -88 -21 0 0 0 0 0 0 0
0 -7 0 0 0 0 -6 0 0 0 0 -11 -49 -5 0 -47 -23 -1 0 -280 -58 -39 -35 -42 -41 -108 -66 -47 -33 -56 -17 -3 -12 -12 -21 -70 -65 -71 -35 -7 0 0 0 0
0 0 0 0 0 0 -29 -27 -11 0 -5 0 0 0 -25 -26 0 0 -2 0 -70 -32 -36 -33 -36 -146 -60 -56 -44 -25 -16 -19 -7 -2 -3 -26 -23 -24 0 0 0 0 0 0
0 0 0 -6 0 0 -10 -2 0 0 0 -2 -74 0 -34 -35 -3 -1 -19 -41 -71 -30 -41 -33 -167 -99 -65 -65 -49 -29 -19 -12 -3 0 0 -3 -2 -20 0 0 0 0 0 0
0 0 -10 -50 -47 0 -3 -6 -4 -3 -136 -15 -26 -69 0 -48 -28 -37 -33 -30 -175 -60 -96 -54 -100 -93 -83 -67 -55 -57 -33 -20 -6 0 -5 -3 -3 -21 -19 0 0 0 0 0
-28 -30 -80 -2 -2 -13 0 0 -23 -4 -2 0 0 0 0 -14 -11 -18 -38 -32 -30 -105 -53 -69 -78 -53 -30 -19 -20 -10 -13 -8 -6 -11 -8 -10 -6 -16 0 0 0 0 0 0
-134 -35 -115 -155 -13 -38 -8 -2 -6 -8 -5 -2 0 0 0 -10 -26 -34 -41 -45 -51 -141 -77 -64 -71 -53 -37 -28 -18 -25 -25 -13 -7 -11 -26 -46 -37 -42 0 0 0 0 0 -9
0 -42 -51 0 -10 0 -11 -23 -12 -17 -1 -2 -3 -37 0 0 0 -30 -46 -76 -57 -137 -76 -75 -76 -73 -67 -49 -44 -30 -10 -13 -37 -44 -52 -5 -10 -7 -4 -5 -7 -8 -4 -2
-16 -8 -24 -39 -13 -30 -51 -1 -2 0 -2 0 0 0 0 0 0 0 0 -39 -35 -68 -44 -38 -41 -47 -77 -73 -68 -57 -54 -72 -55 -12 -17 -10 -13 -10 -2 0 0 -1 -2 0
-27 0 0 0 -6 -20 -3 -9 -8 -2 0 -1 0 0 0 0 0 0 0 0 -50 -33 -28 -20 -16 -15 -63 -61 -57 -60 -63 -4 -9 -6 -8 -5 -1 0 0 0 -2 -1 0 0
-14 -15 0 0 0 0 0 0 -21 -10 -1 0 0 0 0 0 0 0 0 0 0 -87 -35 -16 -8 -11 -32 -61 -67 -8 -7 -3 -5 -5 -10 -2 0 0 0 0 0 0 0 0
-79 0 -60 0 0 0 0 0 0 0 -18 -22 0 0 0 0 0 0 0 0 0 0 0 0 0 0 0 -25 -4 -6 -3 -9 -6 -3 -3 0 0 0 0 0 0 0 0 0
-24 0 0 0 0 0 0 0 0 0 -3 -4 -7 0 0 0 0 0 0 0 0 0 0 0 0 0 0 -20 -28 -5 -11 -8 -4 -4 -2 -2 -1 0 0 0 0 0 0 0
0 0 0 0 0 0 0 0 0 0 0 0 0 0 0 0 0 0 0 0 0 0 0 0 0 0 0 0 -36 -15 -12 -9 -11 -5 0 -2 0 0 -6 0 0 0 0 0
-38 -18 -15 0 0 0 0 0 0 0 0 0 0 0 0 0 0 0 0 0 0 0 0 0 0 0 0 0 0 -6 -11 -16 -16 -12 -7 -4 -3 0 -1 0 0 0 0 0
-81 -54 -9 0 0 0 0 0 0 0 0 0 0 0 0 0 0 0 0 0 0 0 0 0 0 0 0 0 0 -17 -19 -15 -15 -7 -7 -6 0 0 0 0 0 0 0 0
0 -35 -2 -8 0 0 0 0 0 0 0 0 0 0 0 0 0 0 0 0 0 0 0 0 0 0 0 0 0 -5 -14 -7 0 -1 -12 -1 -31 -2 0 0 0 0 0 0
0 0 0 0 0 0 0 0 0 0 0 0 0 0 0 0 0 0 0 0 0 0 0 0 0 0 0 0 0 -2 0 0 0 0 0 0 0 0 0 0 0 0 0 0
0 0 0 0 0 0 0 0 0 0 0 0 0 0 0 0 0 0 0 0 0 0 0 0 0 0 0 0 0 0 0 -2 0 0 0 -1 0 0 0 0 0 0 0 0
0 0 0 0 0 0 0 0 0 0 0 0 0 0 0 0 0 0 0 0 0 0 0 0 0 0 0 0 0 0 0 0 0 0 0 0 0 0 0 0 0 0 0 0
0 0 0 0 0 0 0 0 0 0 0 0 0 0 0 0 0 0 0 0 0 0 0 0 0 0 0 -1 0 0 0 0 0 0 0 0 0 0 0 0 0 0 0 0
-149 0 0 0 0 0 0 0 0 0 0 0 0 0 0 0 0 0 0 0 0 0 0 0 0 0 0 0 0 0 0 0 0 0 0 0 0 0 0 0 0 0 0 0
Wind_Speed
nan nan nan nan nan nan nan nan nan nan nan nan nan 11 15 17 13 10 11 10 6 15 11 16 20 21 21 18 24 25 22 19 19 nan nan nan nan nan nan nan nan nan nan nan
nan nan nan nan nan nan nan nan nan nan nan nan nan 13 8 8 16 13 14 7 14 11 15 17 20 23 27 27 26 24 22 20 13 nan nan nan nan nan nan nan nan nan nan nan
nan nan nan nan nan nan nan nan nan nan nan nan nan 16 6 7 9 7 7 11 13 16 20 18 23 25 26 28 30 27 25 23 13 nan nan nan nan nan nan nan nan nan nan nan
nan nan nan nan nan nan nan nan nan nan nan nan nan nan nan 10 nan nan 20 8 2 4 19 20 22 23 28 30 28 26 24 21 15 21 22 nan nan nan nan nan nan nan nan nan
nan nan nan nan nan nan nan nan nan nan nan nan nan nan nan nan nan nan nan 20 19 14 17 20 25 30 30 28 23 22 18 18 16 24 31 nan nan nan nan nan nan nan nan nan
nan nan nan nan nan nan nan nan nan nan nan nan nan nan nan nan nan nan nan nan 20 15 19 18 22 27 24 19 15 12 16 18 22 28 34 nan nan nan nan nan nan nan nan nan
nan nan nan nan nan nan nan nan nan nan nan nan nan nan nan nan nan nan nan nan 23 21 22 25 27 26 20 20 18 20 23 25 27 36 40 nan nan nan nan nan nan nan nan nan
nan nan nan nan nan nan nan nan nan nan nan nan nan nan nan nan nan nan nan nan 18 21 24 25 20 18 20 23 27 32 35 35 35 40 45 46 nan nan nan nan nan nan nan nan
nan nan nan nan nan nan nan nan nan nan nan nan nan nan nan nan nan nan nan nan nan 10 11 14 12 16 22 26 29 35 38 39 44 47 47 49 nan nan nan nan nan nan nan nan
nan nan nan nan nan nan nan nan nan nan nan nan nan nan nan nan nan nan nan nan nan 12 14 15 17 19 22 28 34 38 42 48 48 50 50 50 nan nan nan nan nan nan nan nan
nan nan nan nan nan nan nan nan nan nan nan nan nan nan nan nan nan nan nan nan nan 16 20 22 23 26 30 34 39 45 50 55 54 52 50 nan nan nan nan nan nan nan nan nan
nan nan nan nan nan nan nan nan nan nan nan nan nan nan nan nan nan nan nan nan 10 16 20 25 29 34 38 41 43 48 50 51 55 54 nan nan nan nan nan nan nan nan nan nan
nan nan nan nan nan nan nan nan nan nan nan nan nan nan nan nan nan nan nan nan 18 20 23 26 34 39 40 42 43 43 46 48 nan nan nan nan nan nan nan nan nan nan nan nan
nan nan nan nan nan nan nan nan nan nan nan nan nan nan nan nan nan nan nan nan 17 21 26 34 36 37 41 46 50 51 nan nan nan nan nan nan nan nan nan nan nan nan nan nan
nan nan nan nan nan nan nan nan nan nan nan nan nan nan nan nan nan nan nan nan nan nan 32 36 37 36 40 47 nan nan nan nan nan nan nan nan nan nan nan nan nan nan nan nan
nan nan nan nan nan nan nan nan nan nan nan nan nan nan nan nan nan nan nan nan nan nan nan nan nan nan nan nan nan nan nan nan nan nan nan nan nan nan nan nan nan nan nan nan
nan nan nan nan nan nan nan nan nan nan nan nan nan nan nan nan nan nan nan nan nan nan nan nan nan nan nan nan nan nan nan nan nan nan nan nan nan nan nan nan nan nan nan nan
nan nan nan nan nan nan nan nan nan nan nan nan nan nan nan nan nan nan nan nan nan nan nan nan nan nan nan nan nan nan nan nan nan nan nan nan nan nan nan nan nan nan nan nan
29 nan nan nan nan nan nan nan nan nan nan nan nan nan nan nan nan nan nan nan nan nan nan nan nan nan nan nan nan nan nan nan nan nan nan nan nan nan nan nan nan nan nan nan
nan nan nan nan nan nan nan nan nan nan nan nan nan nan nan nan nan nan nan nan nan nan nan nan nan nan nan nan nan nan nan nan nan nan nan nan nan nan nan nan nan nan nan nan
nan nan nan nan nan nan nan nan nan nan nan nan nan nan nan nan nan nan nan nan nan nan nan nan nan nan nan nan nan nan nan nan nan nan nan nan nan nan nan nan nan nan nan nan
nan nan nan nan nan nan nan nan nan nan nan nan nan nan nan nan nan nan nan nan nan nan nan nan nan nan nan nan nan nan nan nan nan nan nan nan nan nan nan nan nan nan nan nan
nan nan nan nan nan nan nan nan nan nan nan nan nan nan nan nan nan nan nan nan nan nan nan nan nan nan nan nan nan nan nan nan nan nan nan nan nan nan nan nan nan nan nan nan
nan nan nan nan nan nan nan nan nan nan nan nan nan nan nan nan nan nan nan nan nan nan nan nan nan nan nan nan nan nan nan nan nan nan nan nan nan nan nan nan nan nan nan nan
nan nan nan nan nan nan nan nan nan nan nan nan nan nan nan nan nan nan nan nan nan nan nan nan nan nan nan nan nan nan nan nan nan nan nan nan nan nan nan nan nan nan nan nan
nan nan nan nan nan nan nan nan nan nan nan nan nan nan nan nan nan nan nan nan nan nan nan nan nan nan nan nan nan nan nan nan nan nan nan nan nan nan nan nan nan nan nan nan
Wind_Direction
nan nan nan nan nan nan nan nan nan nan nan nan nan 354 4 348 337 287 327 322 305 348 12 357 355 358 0 359 344 344 340 342 325 nan nan nan nan nan nan nan nan nan nan nan
nan nan nan nan nan nan nan nan nan nan nan nan nan 306 304 318 342 356 4 32 352 328 349 7 1 358 359 351 347 342 338 342 336 nan nan nan nan nan nan nan nan nan nan nan
nan nan nan nan nan nan nan nan nan nan nan nan nan 262 290 306 313 322 62 29 352 342 346 357 360 359 351 343 344 343 341 343 340 nan nan nan nan nan nan nan nan nan nan nan
nan nan nan nan nan nan nan nan nan nan nan nan nan nan nan 333 nan nan 1 337 64 320 341 344 350 353 343 340 346 344 338 329 326 316 309 nan nan nan nan nan nan nan nan nan
nan nan nan nan nan nan nan nan nan nan nan nan nan nan nan nan nan nan nan 1 22 48 358 337 348 348 343 339 341 340 324 316 316 312 315 nan nan nan nan nan nan nan nan nan
nan nan nan nan nan nan nan nan nan nan nan nan nan nan nan nan nan nan nan nan 1 18 338 324 333 331 336 333 343 328 321 307 309 306 304 nan nan nan nan nan nan nan nan nan
nan nan nan nan nan nan nan nan nan nan nan nan nan nan nan nan nan nan nan nan 358 357 333 332 327 331 335 337 321 315 310 300 303 303 299 nan nan nan nan nan nan nan nan nan
nan nan nan nan nan nan nan nan nan nan nan nan nan nan nan nan nan nan nan nan 297 324 327 324 333 340 333 333 322 320 315 308 303 303 301 304 nan nan nan nan nan nan nan nan
nan nan nan nan nan nan nan nan nan nan nan nan nan nan nan nan nan nan nan nan nan 337 323 324 336 324 324 318 315 312 308 306 308 304 305 306 nan nan nan nan nan nan nan nan
nan nan nan nan nan nan nan nan nan nan nan nan nan nan nan nan nan nan nan nan nan 318 309 315 319 311 310 312 310 307 309 310 308 307 308 305 nan nan nan nan nan nan nan nan
nan nan nan nan nan nan nan nan nan nan nan nan nan nan nan nan nan nan nan nan nan 314 317 318 315 315 314 311 314 312 313 314 315 315 310 nan nan nan nan nan nan nan nan nan
nan nan nan nan nan nan nan nan nan nan nan nan nan nan nan nan nan nan nan nan 295 300 311 316 318 315 315 316 313 315 316 319 319 316 nan nan nan nan nan nan nan nan nan nan
nan nan nan nan nan nan nan nan nan nan nan nan nan nan nan nan nan nan nan nan 309 313 308 307 306 311 315 315 316 319 320 318 nan nan nan nan nan nan nan nan nan nan nan nan
nan nan nan nan nan nan nan nan nan nan nan nan nan nan nan nan nan nan nan nan 311 311 310 305 304 314 318 325 326 318 nan nan nan nan nan nan nan nan nan nan nan nan nan nan
nan nan nan nan nan nan nan nan nan nan nan nan nan nan nan nan nan nan nan nan nan nan 305 300 304 307 317 317 nan nan nan nan nan nan nan nan nan nan nan nan nan nan nan nan
nan nan nan nan nan nan nan nan nan nan nan nan nan nan nan nan nan nan nan nan nan nan nan nan nan nan nan nan nan nan nan nan nan nan nan nan nan nan nan nan nan nan nan nan
nan nan nan nan nan nan nan nan nan nan nan nan nan nan nan nan nan nan nan nan nan nan nan nan nan nan nan nan nan nan nan nan nan nan nan nan nan nan nan nan nan nan nan nan
nan nan nan nan nan nan nan nan nan nan nan nan nan nan nan nan nan nan nan nan nan nan nan nan nan nan nan nan nan nan nan nan nan nan nan nan nan nan nan nan nan nan nan nan
246 nan nan nan nan nan nan nan nan nan nan nan nan nan nan nan nan nan nan nan nan nan nan nan nan nan nan nan nan nan nan nan nan nan nan nan nan nan nan nan nan nan nan nan
nan nan nan nan nan nan nan nan nan nan nan nan nan nan nan nan nan nan nan nan nan nan nan nan nan nan nan nan nan nan nan nan nan nan nan nan nan nan nan nan nan nan nan nan
nan nan nan nan nan nan nan nan nan nan nan nan nan nan nan nan nan nan nan nan nan nan nan nan nan nan nan nan nan nan nan nan nan nan nan nan nan nan nan nan nan nan nan nan
nan nan nan nan nan nan nan nan nan nan nan nan nan nan nan nan nan nan nan nan nan nan nan nan nan nan nan nan nan nan nan nan nan nan nan nan nan nan nan nan nan nan nan nan
nan nan nan nan nan nan nan nan nan nan nan nan nan nan nan nan nan nan nan nan nan nan nan nan nan nan nan nan nan nan nan nan nan nan nan nan nan nan nan nan nan nan nan nan
nan nan nan nan nan nan nan nan nan nan nan nan nan nan nan nan nan nan nan nan nan nan nan nan nan nan nan nan nan nan nan nan nan nan nan nan nan nan nan nan nan nan nan nan
nan nan nan nan nan nan nan nan nan nan nan nan nan nan nan nan nan nan nan nan nan nan nan nan nan nan nan nan nan nan nan nan nan nan nan nan nan nan nan nan nan nan nan nan
nan nan nan nan nan nan nan nan nan nan nan nan nan nan nan nan nan nan nan nan nan nan nan nan nan nan nan nan nan nan nan nan nan nan nan nan nan nan nan nan nan nan nan nan